     14  00 39.02  -12 14.5  0.684  1.389  113.5/273  107.9   8.1  +34.9  324.5

     15  00 31.29  -12 07.3  0.673  1.402  117.9/274  110.5   8.1  +36.4  327.8

     16  00 23.27  -11 59.2  0.663  1.416  122.3/274  113.3   8.1  +37.9  331.3

     17  00 14.97  -11 50.3  0.653  1.430  126.5/274  116.1   8.1  +39.2  335.1

     18  00 06.38  -11 40.5  0.645  1.444  130.5/275  119.0   8.1  +40.4  339.1

     19  23 57.53  -11 29.7  0.637  1.457  134.3/275  121.9   8.2  +41.5  343.4

     20  23 48.43  -11 17.8  0.631  1.471  137.7/275  124.9   8.2  +42.4  347.9

     21  23 39.12  -11 05.0  0.625  1.485  140.7/275  128.0   8.2  +43.1  352.6

     22  23 29.61  -10 51.0  0.621  1.499  143.3/276  131.1   8.2  +43.6  357.4

     23  23 19.94  -10 36.0  0.617  1.512  145.3/276  134.2   8.2  +43.9    2.4

     24  23 10.15  -10 20.0  0.615  1.526  146.7/276  137.4   8.3  +43.9    7.5

     25  23 00.28  -10 03.0  0.614  1.540  147.5/277  140.6   8.3  +43.6   12.6

     26  22 50.37  -09 45.1  0.614  1.554  147.7/277  143.7   8.4  +43.1   17.6

     27  22 40.46  -09 26.5  0.616  1.568  147.2/277  146.9   8.4  +42.4   22.5

     28  22 30.60  -09 07.1  0.619  1.582  146.1/278  150.0   8.4  +41.4   27.3

     29  22 20.83  -08 47.2  0.623  1.595  144.4/278  153.0   8.5  +40.2   31.9

     30  22 11.19  -08 26.9  0.628  1.609  142.1/278  156.0   8.6  +38.8   36.3

     31  22 01.72  -08 06.3  0.635  1.623  139.2/278  158.8   8.6  +37.3   40.5

Aug.  1  21 52.46  -07 45.5  0.642  1.637  135.9/279  161.5   8.7  +35.6   44.4

NAKANO

         **** Don't distribute anyone except personal use only ****

                (C) Copyright 2004 OAA/ComputingSection

write mail from CFAD0::NAKANO on 2004-07-02 05:25:16(JST).

 

◎C/2004 H6の軌道と予報位置です



 うまくいけば,6月20日頃には,我が国でも捕らえられるでしょう.



    C/2004 H6 (SWAN)                                                      

T 2004 May 12.68865 TT                                  Nakano

q   0.7761000            (2000.0)            P               Q

                   Peri.  269.04668     +0.19372109     +0.73741189

                   Node   317.23010     +0.59360532     -0.61323007

e   1.0            Incl.  107.65641     -0.78109210     -0.28314765

From 15 observations 2004 May 21-June 7.



 18h TT  R.A.(2000) Decl.    Delta   r      Mot./PA   Elong. Mag.  Twilight

           h  m       。  ,                    ,     。    。    m1    h 。    A 。

June 10  02 56.67  -13 26.2  1.203  0.955   31.6/270   50.1   7.7  -16.3  275.1

     11  02 54.51  -13 26.2  1.189  0.966   32.3/270   51.2   7.7  -15.1  275.9

     12  02 52.30  -13 26.0  1.175  0.977   33.0/271   52.4   7.7  -13.9  276.8

     13  02 50.04  -13 25.7  1.160  0.988   33.8/271   53.5   7.8  -12.6  277.6

     14  02 47.72  -13 25.2  1.145  1.000   34.7/271   54.7   7.8  -11.4  278.5

     15  02 45.34  -13 24.6  1.130  1.011   35.7/271   55.9   7.8  -10.1  279.3

     16  02 42.90  -13 23.9  1.114  1.023   36.7/271   57.2   7.8   -8.8  280.2

     17  02 40.38  -13 23.1  1.099  1.035   37.8/271   58.4   7.9   -7.5  281.1

     18  02 37.80  -13 22.3  1.083  1.047   38.9/271   59.7   7.9   -6.2  282.0

     19  02 35.13  -13 21.3  1.067  1.059   40.2/271   61.0   7.9   -4.9  282.9

     20  02 32.38  -13 20.3  1.051  1.071   41.6/271   62.4   7.9   -3.5  283.9

     21  02 29.53  -13 19.1  1.035  1.084   43.0/272   63.8   7.9   -2.1  284.9

     22  02 26.58  -13 17.9  1.019  1.096   44.6/272   65.2   7.9   -0.7  285.9

     23  02 23.53  -13 16.7  1.002  1.109   46.2/272   66.6   8.0   +0.7  286.9

     24  02 20.37  -13 15.4  0.986  1.121   48.0/272   68.1   8.0   +2.2  288.0

     25  02 17.09  -13 14.0  0.969  1.134   49.9/272   69.6   8.0   +3.6  289.1

     26  02 13.67  -13 12.5  0.953  1.147   51.9/272   71.2   8.0   +5.1  290.2

     27  02 10.12  -13 10.9  0.936  1.160   54.0/272   72.8   8.0   +6.7  291.4

     28  02 06.42  -13 09.3  0.920  1.173   56.3/272   74.4   8.0   +8.2  292.7

     29  02 02.57  -13 07.5  0.903  1.186   58.7/272   76.1   8.0   +9.8  293.9

     30  01 58.55  -13 05.7  0.887  1.199   61.3/272   77.8   8.0  +11.4  295.3

July  1  01 54.35  -13 03.7  0.871  1.213   64.0/272   79.5   8.0  +13.0  296.7

      2  01 49.97  -13 01.6  0.855  1.226   66.9/272   81.4   8.0  +14.6  298.2

      3  01 45.40  -12 59.4  0.839  1.239   70.0/272   83.2   8.0  +16.3  299.7

      4  01 40.61  -12 56.9  0.823  1.253   73.2/272   85.1   8.1  +17.9  301.4

      5  01 35.61  -12 54.3  0.807  1.266   76.6/272   87.1   8.1  +19.6  303.1

      6  01 30.37  -12 51.4  0.792  1.279   80.2/272   89.2   8.1  +21.3  304.9

      7  01 24.90  -12 48.2  0.777  1.293   83.9/272   91.3   8.1  +23.1  306.8

      8  01 19.17  -12 44.7  0.762  1.307   87.8/272   93.4   8.1  +24.8  308.9

      9  01 13.18  -12 40.8  0.748  1.320   91.8/272   95.7   8.1  +26.5  311.1

     10  01 06.91  -12 36.6  0.734  1.334   96.0/273   98.0   8.1  +28.2  313.4

NAKANO

         **** Don't distribute anyone except personal use only ****

                (C) Copyright 2004 OAA/ComputingSection

write mail from CFAD0::NAKANO on 2004-06-13 05:10:56(JST).

 

    C/2004 H6 (SWAN)                                                      

T 2004 May 12.71597 TT                                  Nakano

q   0.7761938            (2000.0)            P               Q

                   Peri.  269.09982     +0.19445152     +0.73710345

                   Node   317.21920     +0.59300426     -0.61390893

e   1.0            Incl.  107.65661     -0.78136710     -0.28247891

From 9 observations 2004 May 16-25.



NAKANO

         **** Don't distribute anyone except personal use only ****

                (C) Copyright 2004 OAA/ComputingSection

write mail from CFAD0::NAKANO on 2004-06-02 06:08:27(JST).

 



◎C/2004 H6の軌道と予報位置です



  SWANイメ−ジ上に7等級の新彗星が発見された.この彗星は,宇都宮の鈴木

雅之氏も遅れて見つけており,5月10日以後の位置(249)は,氏によるもの.

他の観測は,IAUC8346からである.彗星は,6月下旬に我が国でも明け方の空

に観測できる.なお,鈴木氏による測定位置からの軌道では,5月21日と25日

の観測に対し,それぞれ,0゚.69と0゚.50のずれがあった.



    C/2004 H6 (SWAN)                                                      

T 2004 May 12.71597 TT                                  Nakano

q   0.7761938            (2000.0)            P               Q

                   Peri.  269.09982     +0.19445152     +0.73710345

                   Node   317.21920     +0.59300426     -0.61390893

e   1.0            Incl.  107.65661     -0.78136710     -0.28247891

From 9 observations 2004 May 16-25.



 18h TT  R.A.(2000) Decl.    Delta   r      Mot./PA   Elong. Mag.   Twilight

           h  m       。  ,                    ,     。    。    m1     h。    A 。

June 19  02 35.11  -13 20.7  1.067  1.059   40.2/271   61.0   7.9   -4.9  282.9

     20  02 32.36  -13 19.6  1.051  1.071   41.6/272   62.4   7.9   -3.5  283.9

     21  02 29.51  -13 18.5  1.034  1.083   43.0/272   63.8   7.9   -2.1  284.9

     22  02 26.57  -13 17.2  1.018  1.096   44.6/272   65.2   7.9   -0.7  285.9

     23  02 23.51  -13 15.9  1.002  1.108   46.2/272   66.6   8.0   +0.7  286.9

     24  02 20.35  -13 14.6  0.985  1.121   48.0/272   68.1   8.0   +2.2  288.0

     25  02 17.06  -13 13.1  0.969  1.134   49.9/272   69.6   8.0   +3.7  289.1

     26  02 13.65  -13 11.6  0.952  1.147   51.9/272   71.2   8.0   +5.2  290.2

     27  02 10.09  -13 10.0  0.936  1.160   54.1/272   72.7   8.0   +6.7  291.4

     28  02 06.39  -13 08.3  0.919  1.173   56.4/272   74.4   8.0   +8.2  292.7

     29  02 02.53  -13 06.5  0.903  1.186   58.8/272   76.1   8.0   +9.8  293.9

     30  01 58.51  -13 04.6  0.887  1.199   61.4/272   77.8   8.0  +11.4  295.3

July  1  01 54.31  -13 02.6  0.870  1.212   64.1/272   79.5   8.0  +13.0  296.7

      2  01 49.93  -13 00.4  0.854  1.226   67.0/272   81.4   8.0  +14.6  298.2

      3  01 45.35  -12 58.1  0.838  1.239   70.1/272   83.2   8.0  +16.3  299.7

      4  01 40.56  -12 55.6  0.822  1.252   73.3/272   85.1   8.1  +18.0  301.3

      5  01 35.55  -12 52.9  0.807  1.266   76.7/272   87.1   8.1  +19.7  303.1

      6  01 30.31  -12 49.9  0.791  1.279   80.2/272   89.2   8.1  +21.4  304.9

      7  01 24.83  -12 46.6  0.776  1.293   84.0/272   91.3   8.1  +23.1  306.8

      8  01 19.09  -12 43.1  0.762  1.306   87.9/272   93.4   8.1  +24.8  308.9

      9  01 13.10  -12 39.1  0.747  1.320   91.9/273   95.7   8.1  +26.5  311.1

     10  01 06.82  -12 34.8  0.733  1.333   96.1/273   98.0   8.1  +28.3  313.4

     11  01 00.27  -12 29.9  0.720  1.347  100.4/273  100.3   8.1  +30.0  315.9

     12  00 53.42  -12 24.6  0.707  1.361  104.8/273  102.8   8.1  +31.7  318.6

     13  00 46.28  -12 18.6  0.695  1.374  109.2/273  105.3   8.1  +33.3  321.5

     14  00 38.85  -12 12.0  0.683  1.388  113.7/274  107.9   8.1  +34.9  324.5

     15  00 31.11  -12 04.6  0.672  1.402  118.1/274  110.6   8.1  +36.5  327.8

     16  00 23.08  -11 56.4  0.662  1.416  122.5/274  113.3   8.1  +37.9  331.4

     17  00 14.75  -11 47.4  0.652  1.429  126.8/274  116.1   8.1  +39.3  335.2

     18  00 06.15  -11 37.4  0.644  1.443  130.8/275  119.0   8.1  +40.5  339.2

     19  23 57.28  -11 26.4  0.636  1.457  134.6/275  122.0   8.2  +41.6  343.4

     20  23 48.17  -11 14.5  0.630  1.471  138.0/275  125.0   8.2  +42.5  347.9

     21  23 38.83  -11 01.4  0.624  1.484  141.0/276  128.0   8.2  +43.2  352.6

     22  23 29.31  -10 47.3  0.620  1.498  143.6/276  131.1   8.2  +43.7  357.5

     23  23 19.62  -10 32.2  0.616  1.512  145.6/276  134.3   8.2  +43.9    2.5

     24  23 09.82  -10 16.1  0.614  1.526  147.0/276  137.4   8.3  +43.9    7.6

     25  22 59.93  -09 58.9  0.613  1.540  147.8/277  140.6   8.3  +43.7   12.7

     26  22 50.01  -09 40.9  0.613  1.553  148.0/277  143.8   8.4  +43.2   17.7

     27  22 40.08  -09 22.1  0.615  1.567  147.5/277  146.9   8.4  +42.4   22.7

     28  22 30.21  -09 02.7  0.618  1.581  146.3/278  150.0   8.4  +41.4   27.5

     29  22 20.43  -08 42.6  0.622  1.595  144.6/278  153.1   8.5  +40.2   32.1

     30  22 10.78  -08 22.2  0.627  1.609  142.2/278  156.0   8.6  +38.9   36.5

